Weather History for Bryce Canyon, UT

Change the Weather History Date:

Wednesday, February 13, 2013

  Actual Average Record
Temperature  
Mean Temperature 22 °F -  
Max Temperature 37 °F 40 °F 52 °F (1979)
Min Temperature 7 °F 13 °F -14 °F (2004)
Degree Days  
Heating Degree Days 43    
Moisture  
Dew Point 15 °F    
Average Humidity 77    
Maximum Humidity 92    
Minimum Humidity 52    
Precipitation  
Precipitation 0.00 in - - ()
Sea Level Pressure  
Sea Level Pressure 30.25 in    
Wind  
Wind Speed 10 mph (NW)    
Max Wind Speed 14 mph    
Max Gust Speed -    
Visibility 10 miles    
Events      
Averages and records for this station are not official NWS values.
T = Trace of Precipitation, MM = Missing Value Source: NWS Daily Summary

Daily Weather History Graph

Daily Weather History Graph

Search for Another Location

Airport:

Trip Planner

Search our weather history database for the weather conditions in past years. The results will help you decide how hot, cold, wet, or windy it might be!

Date:

Astronomy

Feb. 13, 2013 Rise Set
Actual Time 7:20 AM MST 6:05 PM MST
Civil Twilight 6:53 AM MST 6:32 PM MST
Nautical Twilight 6:22 AM MST 7:03 PM MST
Astronomical Twilight 5:51 AM MST 7:34 PM MST
Moon 8:56 AM MST (2/13) 10:06 PM MST (2/13)
Length of Visible Light 11h 39m
Length of Day
10h 45m
Waxing Crescent, 14% of the Moon is Illuminated
Feb 13
Waxing Crescent
Feb 17
First Quarter
Feb 25
Full
Mar 4
Last Quarter
Mar 11
New

Hourly Weather History & Observations

Time (MST) Temp. Windchill Dew Point Humidity Pressure Visibility Wind Dir Wind Speed Gust Speed Precip Events Conditions
12:53 AM 14.0 °F -0.2 °F 10.9 °F 88% 30.31 in 10.0 mi NW 12.7 mph - N/A   Clear
1:53 AM 15.1 °F 1.1 °F 10.9 °F 84% 30.28 in - NW 12.7 mph - N/A   Unknown
2:53 AM 12.9 °F -0.9 °F 10.0 °F 88% 30.27 in 10.0 mi WNW 11.5 mph - N/A   Clear
3:53 AM 8.1 °F -4.3 °F 6.1 °F 92% 30.27 in 10.0 mi WNW 8.1 mph - N/A   Clear
4:53 AM 7.0 °F -7.5 °F 5.0 °F 92% 30.29 in 10.0 mi WNW 10.4 mph - N/A   Clear
5:53 AM 10.0 °F -3.7 °F 8.1 °F 92% 30.21 in 10.0 mi WNW 10.4 mph - N/A   Clear
6:53 AM 9.0 °F -2.2 °F 7.0 °F 92% 30.32 in 10.0 mi West 6.9 mph - N/A   Clear
7:53 AM 10.0 °F -0.9 °F 7.0 °F 87% 30.35 in 10.0 mi West 6.9 mph - N/A   Clear
8:53 AM 19.0 °F 11.1 °F 14.0 °F 81% 30.30 in 10.0 mi NW 5.8 mph - N/A   Clear
9:53 AM 24.1 °F 15.2 °F 17.1 °F 75% 30.29 in 10.0 mi North 8.1 mph - N/A   Clear
10:53 AM 27.0 °F 18.7 °F 18.0 °F 69% 30.27 in 10.0 mi North 8.1 mph - N/A   Clear
11:53 AM 30.0 °F 21.7 °F 19.9 °F 66% 30.26 in 10.0 mi North 9.2 mph - N/A   Clear
12:53 PM 33.1 °F 26.1 °F 21.0 °F 61% 30.22 in 10.0 mi North 8.1 mph - N/A   Unknown
1:53 PM 34.0 °F 25.0 °F 21.9 °F 61% 30.19 in 10.0 mi NW 12.7 mph - N/A   Clear
2:53 PM 36.0 °F 28.0 °F 21.9 °F 57% 30.18 in 10.0 mi NNW 11.5 mph - N/A   Clear
3:53 PM 37.0 °F 31.0 °F 21.0 °F 52% 30.21 in 10.0 mi NW 8.1 mph - N/A   Clear
4:53 PM 35.1 °F 26.4 °F 21.0 °F 57% 30.22 in 10.0 mi WNW 12.7 mph - N/A   Clear
5:53 PM 32.0 °F 23.6 °F 21.0 °F 64% 30.22 in 10.0 mi NNW 10.4 mph - N/A   Clear
6:53 PM 28.0 °F 18.6 °F 19.9 °F 72% 30.24 in 10.0 mi WNW 10.4 mph - N/A   Clear
7:53 PM 19.9 °F 12.1 °F 16.0 °F 85% 30.30 in 10.0 mi NE 5.8 mph - N/A   Clear
8:53 PM 19.9 °F 10.1 °F 15.1 °F 81% 30.25 in 10.0 mi North 8.1 mph - N/A   Clear
9:53 PM 19.0 °F 7.5 °F 15.1 °F 85% 30.23 in 10.0 mi NNW 10.4 mph - N/A   Unknown
10:53 PM 21.0 °F 8.1 °F 16.0 °F 81% 30.20 in 10.0 mi NNW 13.8 mph - N/A   Clear
11:53 PM 23.0 °F 13.1 °F 17.1 °F 78% 30.16 in 10.0 mi NW 9.2 mph - N/A   Clear